Tracking 20083 objects as of 8-Dec-2019
HD Live streaming from Space Station
objects crossing your sky now

FLOCK 1C 5

Track FLOCK 1C 5 now!
10-day predictions
FLOCK 1C 5 is classified as:


NORAD ID: 40038
Int'l Code: 2014-033AE
Perigee: 595.4 km
Apogee: 614.0 km
Inclination: 97.9 °
Period: 96.6 minutes
Semi major axis: 6975 km
RCS: Unknown
Launch date: June 19, 2014
Source: United States (US)
Launch site: Orenburg, Russia (OREN)
aabbcc
Your satellite tracking list
Your tracking list is empty




NASA's NSSDC Master Catalog

Two Line Element Set (TLE):
1 40038U 14033AE  19341.43558978  .00000392  00000-0  46477-4 0  9999
2 40038  97.9349 265.7175 0013363 196.0423 164.0373 14.90115517296973
Source of the keplerian elements: AFSPC